{"data":{"norad_id":38045,"intl_designator":"2011-080F","name":"GLOBALSTAR M086","alt_names":[],"object_type":"PAYLOAD","status":"ACTIVE","operator":null,"country":"GLOB","launch_date":"2011-12-28","launch_site_code":"TYMSC","launch_vehicle":null,"mission":null,"orbit_class":"UNKNOWN","rcs_meters":4.5242,"size_class":null,"mass_kg":null,"dimensions":null,"purposes":["comms"],"wikipedia_slug":null,"has_3d_model":false,"image_url":null,"decayed_at":null,"tle_current":{"epoch":"2026-09-19T03:49:00.893568Z","epoch_age_seconds":127124,"freshness":"FRESH","line1":"1 38045U 11080F   26262.15903812 -.00000088  00000+0  90058-4 0  9999","line2":"2 38045  51.9909  42.2173 0000559 229.8712 301.2429 12.62289248681521","mean_motion":12.62289248,"eccentricity":5.59e-5,"inclination_deg":51.9909,"raan_deg":42.2173,"arg_perigee_deg":229.8712,"mean_anomaly_deg":301.2429,"bstar":9.0058e-5,"rev_number":68152,"period_min":114.07844931592,"perigee_km":1413.0741605848,"apogee_km":1413.9452666874,"semimajor_km":7791.6467136361,"source":"CELESTRAK","updated_at":"2026-09-20T09:00:45.040579Z"}}}